Regional Weather Roundup
Issued by NWS Bismarck, ND

Home | Current Version | Previous Version | Text Only | Print | Product List | Glossary On
Versions: 1 2 3 4 5 6 7 8 9 10 11 12 13 14 15 16 17 18 19 20 21 22 23 24 25 26 27 28 29 30 31 32 33 34 35 36 37 38 39 40 41 42 43 44 45 46 47 48 49 50
000
ASUS43 KBIS 230810
RWRBIS

NWR BROADCAST TEXT
NATIONAL WEATHER SERVICE BISMARCK ND
300 AM CDT SAT SEP 23 2017

NOTE: "FAIR" INDICATES FEW OR NO CLOUDS BELOW 12,000 FEET WITH NO
SIGNIFICANT WEATHER AND/OR OBSTRUCTIONS TO VISIBILITY.


CITY           SKY/WX    TMP DP  RH WIND       PRES   REMARKS
WILLISTON      CLOUDY    44  41  89 N7        30.08S
MINOT          CLOUDY    48  45  89 NW6       30.03R
MINOT AFB      CLOUDY    46  45  93 NW7       30.03R
BISMARCK       LGT RAIN  49  46  90 N8G20     29.99R
DICKINSON      NOT AVBL
GARRISON         N/A     46  45  96 N9        30.05R
HETTINGER ARPT CLOUDY    43  41  93 NW14G21   30.03S
JAMESTOWN      CLOUDY    50  48  93 N16G24    29.93S
CARRINGTON     CLOUDY    48  48 100 N12       29.97F FOG
HAZEN          CLOUDY    48  48 100 NW7       30.06S
LINTON         CLOUDY    48  43  81 N12       30.01R
MANDAN         LGT RAIN  46  46 100 N14       29.99S
RUGBY          CLOUDY    48  46  93 NE10      29.96F
STANLEY        CLOUDY    45  45 100 N8        30.07S
TIOGA          PTSUNNY   43  43 100 N5        30.07R
WATFORD CITY   CLOUDY    45  43  93 NW7       30.07S
$$

CITY           SKY/WX    TMP DP  RH WIND       PRES   REMARKS
GRAND FORKS    LGT RAIN  51  50  96 NW14G25   29.91R FOG
GRAND FORKS AF CLOUDY    50  50 100 N13G22    29.92S
DEVILS LAKE    CLOUDY    48  44  86 N14G23    29.99R
FARGO          CLOUDY    55  52  89 NW14      29.89R
CANDO          CLOUDY    48  48 100 N14G21    30.01R
CAVALIER       CLOUDY    50  46  87 NW18      29.92R
GRAFTON        CLOUDY    50  50 100 NW15G23   29.94R FOG
GWINNER        CLOUDY    54  52  94 N8        29.92S
LANGDON        CLOUDY    46  46 100 NW15G23   29.97R
ROLLA          CLOUDY    45  45 100 N15       29.98S
WALHALLA       FAIR     N/A N/A N/A NW14G28   29.94R
$$

CITY           SKY/WX    TMP DP  RH WIND       PRES   REMARKS
ABERDEEN       CLOUDY    54  51  90 N12       29.94R
MOBRIDGE       CLOUDY    52  46  80 N12       29.96R
BUFFALO          N/A     41  38  89 N9        29.97R
GLASGOW        CLOUDY    45  42  89 CALM      30.09S
SIDNEY         CLOUDY    43  40  89 NW6       30.10R
WOLF POINT     CLOUDY    41  39  93 CALM      30.11S
GLENDIVE       CLOUDY    43  40  89 N7        30.08F
MILES CITY     CLOUDY    44  38  79 N8        30.07F
BAKER          LGT RAIN  42  38  85 NW7       30.07S
$$

CITY           SKY/WX    TMP DP  RH WIND       PRES   REMARKS
BILLINGS       LGT RAIN  40  39  97 NE9       30.05S
GREAT FALLS    CLOUDY    36  34  92 W5        30.08R
REGINA         CLOUDY    39  39 100 N3        30.08R
ESTEVAN        CLOUDY    43  43 100 NW6       30.06S
$$




USA.gov is the U.S. government's official web portal to all federal, state and local government web resources and services.